CAPE
0 0 0 0 0 0 0 0 0 0 0 0 0 0 0 0 0 0 61 442 373 531 844 742 240 11 0 0 0 0 60 379 431 398 212 33 0 0 130 335 259 373 509 88 0 105 50 0 10
0 0 0 0 0 0 0 0 0 0 0 0 0 0 247 4 0 33 328 598 586 606 823 590 260 20 0 0 0 0 0 1 117 170 76 15 1 46 245 226 255 352 383 123 0 150 105 53 212
0 0 0 0 0 0 0 0 0 0 0 0 0 0 129 603 762 83 222 769 731 627 708 471 278 46 0 0 0 0 0 0 0 4 9 1 3 131 224 243 163 246 186 104 0 90 114 44 51
0 0 0 0 0 0 0 0 0 0 0 0 0 0 20 745 1051 197 741 940 674 562 564 740 306 24 0 0 0 0 0 0 0 0 0 0 15 196 274 235 176 257 69 0 0 0 0 0 0
0 0 0 0 0 0 0 0 0 0 0 0 0 0 0 776 987 833 981 986 566 640 772 792 370 64 1 0 0 0 0 0 0 0 0 0 54 173 244 270 207 232 78 0 0 0 0 0 0
0 0 0 0 0 0 0 0 0 0 0 0 0 0 0 650 908 1039 1055 963 885 665 777 875 661 219 26 2 0 0 0 0 0 0 0 0 6 65 162 229 289 323 211 0 0 0 0 0 0
0 0 0 0 0 0 0 0 0 0 0 0 0 0 5 934 818 978 1132 1085 1091 1050 798 628 643 352 207 149 6 0 0 0 0 0 0 0 0 3 115 149 242 310 114 0 0 0 0 0 0
0 0 0 0 0 0 0 0 0 0 0 0 0 0 0 596 970 966 1096 1003 950 960 832 541 559 412 231 245 302 82 2 0 0 0 0 0 22 142 271 341 327 254 30 0 0 0 0 0 0
0 0 0 0 0 0 0 0 0 0 0 0 0 0 92 869 1070 914 875 820 827 884 696 511 649 666 613 403 353 380 228 221 160 67 29 11 19 120 288 491 456 442 74 0 0 0 0 0 0
0 0 0 0 0 0 0 0 0 0 0 0 0 16 568 945 1138 970 675 500 556 628 686 622 649 684 680 789 733 450 439 271 177 211 181 78 61 85 166 246 370 346 224 70 43 13 0 0 0
0 0 0 0 0 0 0 0 0 0 0 0 0 0 379 971 1029 920 632 439 344 328 460 571 629 659 700 652 691 689 654 482 215 154 141 117 109 115 145 143 181 254 216 146 49 29 0 0 0
0 0 0 0 0 0 0 0 0 0 0 0 0 0 132 1013 1072 836 582 416 280 247 307 539 754 830 875 970 957 866 770 627 396 222 156 136 83 79 54 56 70 69 85 38 5 0 0 0 0
0 0 0 0 0 0 0 0 0 0 0 0 0 0 0 376 1077 744 498 295 157 405 575 711 888 893 970 1078 825 860 852 772 562 430 263 148 73 84 79 44 42 18 12 13 0 0 0 0 0
0 0 0 0 0 0 0 0 0 0 0 0 0 0 0 4 808 985 658 526 272 351 869 868 887 854 924 983 867 770 775 754 603 455 292 200 148 124 114 66 7 0 0 0 0 0 0 4 7
0 0 0 0 0 0 0 0 0 0 0 0 0 0 0 122 826 1070 1088 657 319 89 602 978 821 779 814 840 695 612 583 598 513 439 342 267 242 167 173 76 59 6 10 38 14 38 73 79 87
0 0 0 0 0 0 0 0 0 0 0 0 0 0 0 171 817 952 1020 684 349 181 170 314 592 777 723 702 602 444 401 411 451 381 359 341 378 295 136 83 14 23 5 46 104 136 216 195 223
0 0 0 0 0 0 0 0 0 0 0 0 0 0 0 20 616 944 893 794 486 252 263 474 749 863 631 526 471 387 382 325 264 256 257 70 136 195 113 65 41 54 29 67 151 131 32 209 393
0 0 0 0 0 0 0 0 0 0 0 0 0 0 0 2 10 611 855 735 461 378 272 495 813 810 620 503 413 394 332 297 225 196 216 255 280 359 245 240 238 290 91 331 154 204 208 246 267
0 0 0 0 0 0 0 0 0 0 0 0 0 0 0 0 0 235 624 532 485 368 501 423 736 743 685 585 474 355 331 277 283 212 162 231 268 284 252 247 317 261 322 260 319 216 121 116 191
0 0 0 0 0 0 0 0 0 0 0 0 0 0 0 0 0 0 350 442 402 455 451 389 342 650 740 696 469 425 288 264 327 306 269 138 66 68 11 10 20 0 11 27 18 40 45 81 75
0 0 0 0 0 0 0 0 0 0 0 0 0 0 0 0 0 0 135 486 423 360 437 445 258 259 673 498 475 330 295 256 376 368 295 193 97 110 39 0 0 0 2 8 15 2 26 8 0
0 0 0 0 0 0 0 0 0 0 0 0 0 0 0 0 0 0 0 333 463 325 75 77 102 199 285 369 470 466 339 335 159 143 146 123 74 60 65 59 44 92 47 72 11 0 0 8 57
0 0 0 0 0 0 0 0 0 0 0 0 0 0 0 0 0 0 0 0 308 190 115 65 51 72 112 90 96 195 248 82 52 24 16 21 87 131 90 150 240 98 8 38 53 7 57 90 2
0 0 0 0 0 0 0 0 0 0 0 0 0 0 0 0 0 0 0 0 30 48 86 97 77 44 67 93 71 101 137 110 112 86 121 115 78 3 0 1 32 21 145 190 170 140 68 155 50
3 0 0 0 0 0 0 0 0 0 0 0 0 0 0 0 0 0 0 0 16 28 22 17 23 30 49 54 50 46 46 32 24 18 7 0 0 0 0 0 0 0 0 0 0 14 38 40 42
2 0 0 0 0 0 0 0 0 0 0 0 0 0 0 0 0 0 0 0 0 0 3 5 8 3 0 0 0 0 0 0 0 0 0 0 0 0 0 0 0 0 0 0 0 0 0 0 0
0 0 0 0 0 0 0 0 3 0 0 0 0 0 0 0 0 0 0 0 0 0 0 0 0 0 0 0 0 0 0 0 0 0 0 0 0 0 0 0 0 0 0 0 0 0 0 0 0
0 0 0 0 0 0 0 0 0 1 0 0 19 9 0 1 0 1 0 0 0 0 0 0 0 0 0 0 0 0 0 0 0 0 0 0 0 0 0 0 0 0 0 0 0 0 0 0 0
0 0 0 0 0 0 0 0 8 8 0 23 30 5 0 0 0 0 0 0 0 0 0 0 0 0 0 0 0 0 0 0 0 0 0 0 0 0 0 0 0 0 0 0 0 0 0 0 0
0 0 0 0 0 0 0 0 1 0 0 19 15 0 0 0 0 0 0 0 0 0 0 0 0 0 0 0 0 0 0 0 0 0 0 0 0 0 0 0 0 0 0 0 0 0 0 0 0
CIN
0 0 0 0 0 0 0 0 0 0 0 0 0 0 0 0 0 0 -689 -575 -512 -464 -394 -382 -479 -269 0 0 0 0 -530 -323 -287 -290 -345 -473 0 0 -347 -249 -269 -215 -160 -335 0 -306 -358 0 -304
0 0 0 0 0 0 0 0 0 0 0 0 0 0 -78 -10 0 -176 -483 -527 -468 -471 -374 -388 -436 -426 0 0 0 0 0 -40 -420 -384 -442 -519 -233 -458 -327 -314 -287 -233 -211 -305 0 -279 -305 -335 -260
0 0 0 0 0 0 0 0 0 0 0 0 0 0 -139 -134 -294 -354 -514 -496 -467 -427 -393 -385 -393 -486 0 0 0 0 0 0 0 -151 -548 -166 -165 -370 -334 -316 -335 -291 -301 -329 0 -308 -286 -322 -319
0 0 0 0 0 0 0 0 0 0 0 0 0 0 -182 -417 -346 -486 -461 -450 -483 -461 -415 -330 -376 -480 0 0 0 0 0 0 0 0 0 0 -214 -371 -327 -338 -351 -303 -353 -7 0 0 -10 0 0
0 0 0 0 0 0 0 0 0 0 0 0 0 0 0 -385 -431 -473 -443 -428 -454 -431 -359 -327 -377 -470 -110 0 0 0 0 0 0 0 0 0 -386 -339 -316 -293 -298 -270 -327 0 0 0 0 0 0
0 0 0 0 0 0 0 0 0 0 0 0 0 0 0 -395 -406 -423 -427 -429 -403 -407 -348 -310 -315 -421 -534 -325 0 0 0 0 0 0 0 0 -215 -365 -311 -291 -268 -240 -259 0 0 0 0 0 0
0 0 0 0 0 0 0 0 0 0 0 0 0 0 -129 -303 -382 -403 -393 -399 -373 -352 -371 -364 -330 -387 -410 -412 -251 0 0 0 0 0 0 0 0 -64 -309 -292 -260 -224 -291 0 0 0 0 0 0
0 0 0 0 0 0 0 0 0 0 0 0 0 0 0 -256 -310 -350 -330 -369 -369 -359 -357 -403 -382 -398 -411 -402 -373 -433 -88 0 0 0 0 -4 -454 -342 -261 -213 -213 -222 -317 0 0 0 0 0 0
0 0 0 0 0 0 0 0 0 0 0 0 0 0 -184 -311 -282 -288 -339 -362 -376 -360 -383 -414 -367 -348 -349 -380 -386 -374 -399 -405 -415 -454 -491 -528 -490 -370 -270 -188 -189 -170 -304 0 0 0 0 0 0
0 0 0 0 0 0 0 0 0 0 0 0 0 -78 -275 -269 -267 -261 -338 -385 -385 -401 -416 -407 -400 -386 -378 -327 -320 -381 -378 -409 -434 -397 -401 -468 -487 -430 -351 -294 -225 -218 -229 -311 -336 -228 0 0 0
0 0 0 0 0 0 0 0 0 0 0 0 0 0 -223 -173 -206 -256 -301 -331 -311 -415 -427 -446 -446 -459 -445 -386 -364 -355 -331 -363 -426 -437 -414 -431 -439 -415 -385 -358 -298 -228 -212 -224 -291 -300 -44 0 0
0 0 0 0 0 0 0 0 0 0 0 0 0 0 -189 -150 -158 -212 -240 -289 -333 -414 -436 -456 -411 -411 -409 -420 -383 -325 -303 -312 -369 -405 -409 -381 -431 -429 -419 -428 -395 -357 -292 -309 -331 0 0 0 0
0 0 0 0 0 0 0 0 0 0 0 0 0 0 0 -181 -124 -167 -259 -338 -411 -354 -380 -370 -326 -328 -340 -291 -403 -300 -243 -230 -272 -293 -357 -372 -402 -374 -379 -375 -383 -400 -355 -361 0 0 0 0 0
0 0 0 0 0 0 0 0 0 0 0 0 0 0 0 -208 -161 -150 -175 -200 -308 -351 -306 -324 -319 -319 -324 -293 -344 -305 -237 -234 -235 -262 -297 -332 -349 -350 -340 -320 -280 0 0 0 0 0 0 -180 -300
0 0 0 0 0 0 0 0 0 0 0 0 0 0 0 -146 -180 -136 -121 -157 -288 -407 -339 -299 -321 -334 -339 -330 -333 -297 -271 -243 -228 -231 -236 -256 -307 -278 -278 -298 -283 -384 -344 -209 -190 -181 -186 -183 -172
0 0 0 0 0 0 0 0 0 0 0 0 0 0 0 -144 -140 -162 -136 -193 -316 -366 -368 -396 -359 -341 -327 -310 -312 -318 -293 -257 -219 -210 -187 -204 -256 -277 -270 -343 -306 -280 -309 -192 -155 -117 -129 -142 -145
0 0 0 0 0 0 0 0 0 0 0 0 0 0 0 -186 -162 -183 -195 -200 -268 -350 -374 -355 -323 -289 -333 -339 -344 -348 -302 -284 -249 -229 -219 -284 -226 -236 -325 -247 -310 -226 -182 -189 -172 -178 -194 -93 -90
0 0 0 0 0 0 0 0 0 0 0 0 0 0 0 -60 -50 -123 -181 -238 -319 -369 -406 -347 -308 -317 -335 -348 -354 -330 -313 -291 -311 -276 -211 -193 -171 -159 -149 -130 -154 -223 -144 -128 -160 -150 -150 -144 -124
0 0 0 0 0 0 0 0 0 0 0 0 0 0 0 0 0 -136 -185 -293 -298 -355 -334 -338 -311 -322 -303 -307 -306 -317 -298 -324 -297 -272 -237 -204 -190 -133 -153 -128 -118 -139 -111 -109 -102 -108 -151 -110 -132
0 0 0 0 0 0 0 0 0 0 0 0 0 0 0 0 0 0 -168 -241 -251 -222 -278 -326 -387 -316 -287 -251 -291 -282 -327 -303 -269 -254 -248 -299 -278 -250 -285 -174 -189 0 -185 -146 -166 -152 -89 -40 -32
0 0 0 0 0 0 0 0 0 0 0 0 0 0 0 0 0 0 -141 -167 -218 -256 -267 -276 -397 -413 -289 -305 -273 -300 -283 -294 -233 -194 -247 -256 -269 -233 -272 0 0 0 -198 -179 -165 -83 -109 -42 0
0 0 0 0 0 0 0 0 0 0 0 0 0 0 0 0 0 0 0 -153 -172 -210 -450 -496 -495 -451 -389 -309 -221 -191 -189 -172 -252 -261 -275 -263 -313 -303 -251 -212 -164 -157 -185 -161 -206 0 0 -49 -5
0 0 0 0 0 0 0 0 0 0 0 0 0 0 0 0 0 0 0 -17 -261 -390 -446 -463 -498 -462 -428 -389 -306 -249 -203 -274 -324 -377 -384 -398 -344 -291 -252 -114 -51 -112 -216 -187 -114 -112 -68 -38 -15
0 0 0 0 0 0 0 0 0 0 0 0 0 0 0 0 0 0 0 0 -447 -519 -493 -506 -481 -463 -442 -404 -419 -382 -331 -283 -270 -295 -242 -259 -244 -277 0 -49 -157 -152 -104 -89 -107 -132 -140 -68 -38
-1 0 0 0 0 0 0 0 0 0 0 0 0 0 0 0 0 0 0 0 -546 -571 -563 -568 -526 -476 -468 -437 -443 -445 -465 -463 -140 -132 -143 0 0 0 0 0 0 0 0 0 0 -62 -161 -165 -141
-3 0 0 0 0 0 0 0 0 0 0 0 0 0 0 0 0 0 0 0 0 0 -587 -547 -493 -275 -57 0 0 0 0 0 0 0 0 0 0 0 0 0 0 0 0 0 0 0 0 0 0
-2 0 0 0 0 0 0 0 -143 0 0 0 0 0 0 0 0 0 0 0 0 0 0 0 0 0 0 0 0 0 0 0 0 0 0 0 0 0 0 0 0 0 0 0 0 0 0 0 0
0 0 0 0 0 0 0 0 0 -77 0 0 -310 -357 0 0 0 0 0 0 0 0 0 0 0 0 0 0 0 0 0 0 0 0 0 0 0 0 0 0 0 0 0 0 0 0 0 0 0
0 0 0 0 0 0 0 0 -163 -131 0 -222 -268 -252 0 0 0 0 0 0 0 0 0 0 0 0 0 0 0 0 0 0 0 0 0 0 0 0 0 0 0 0 0 0 0 0 0 0 0
0 0 0 0 0 0 0 0 -7 0 0 -228 -253 0 0 0 0 0 0 0 0 0 0 0 0 0 0 0 0 0 0 0 0 0 0 0 0 0 0 0 0 0 0 0 0 0 0 0 0
Wind_Speed
27 26 22 22 28 28 33 27 22 20 18 19 26 26 25 20 19 20 20 11 5 16 19 19 15 12 12 13 14 14 16 17 16 16 17 18 20 21 22 20 20 19 19 19 20 20 20 21 22
23 21 20 22 29 33 38 28 25 19 22 26 25 23 19 18 19 19 14 9 7 14 11 16 15 11 10 11 12 13 14 14 14 15 16 17 19 20 20 19 18 18 18 18 18 19 20 20 21
20 18 21 27 33 35 38 27 22 22 24 24 22 22 19 19 22 17 15 4 6 5 7 15 11 11 10 10 10 10 12 13 13 14 16 18 18 18 17 16 16 16 17 17 17 17 17 18 18
18 18 21 34 39 36 37 21 20 23 20 18 23 23 20 18 21 20 6 3 6 6 6 10 8 9 9 8 8 9 10 11 13 13 14 15 16 15 15 15 15 15 16 15 15 14 14 14 15
19 20 32 37 42 37 33 32 30 33 27 22 25 28 24 19 17 10 3 3 6 4 6 7 9 9 9 8 8 8 9 10 10 8 6 6 8 11 11 12 12 12 12 12 12 11 10 11 11
22 21 34 44 40 35 34 34 32 30 30 25 28 28 24 17 11 6 2 1 4 6 5 8 8 5 5 7 7 8 8 8 9 10 9 7 7 8 9 9 9 10 10 10 9 7 7 7 8
24 27 36 36 37 38 33 30 36 38 38 30 25 28 22 17 10 5 2 3 3 3 4 6 6 4 2 1 4 6 7 7 8 8 8 8 7 5 5 6 7 7 8 7 7 6 6 6 6
21 27 35 34 35 38 27 26 31 28 28 23 20 25 27 18 10 6 4 3 4 4 4 3 4 3 2 2 1 2 6 8 8 8 7 6 6 5 5 4 5 6 7 6 6 6 7 7 8
17 31 38 35 33 35 26 27 26 25 27 26 24 26 25 10 7 7 6 6 5 4 5 5 5 4 4 3 3 2 0 0 2 4 6 6 5 4 4 3 4 6 7 7 7 7 7 9 11
22 34 35 27 28 31 29 32 31 29 31 30 28 24 18 11 10 11 10 9 8 7 6 7 7 7 6 6 5 5 4 3 2 2 2 3 5 6 6 7 7 9 9 9 10 11 11 14 15
27 40 29 27 26 29 32 33 30 32 36 30 29 25 18 16 15 14 13 12 9 8 8 8 9 9 8 8 8 7 7 6 6 6 6 7 7 8 10 11 12 14 14 14 15 16 16 17 17
35 33 28 26 27 27 29 29 34 30 34 32 29 26 20 18 19 19 18 15 11 10 9 9 7 7 11 8 8 10 11 10 8 8 7 9 10 11 13 13 13 15 17 17 17 17 19 21 22
35 34 30 32 32 32 34 40 38 36 34 36 36 33 29 23 21 21 20 19 18 14 12 10 11 11 11 6 7 12 16 16 14 7 12 12 13 15 15 16 17 17 18 18 19 20 23 24 24
29 34 38 33 31 28 31 40 31 27 26 30 34 34 30 28 24 23 23 21 18 15 13 11 11 12 8 10 6 11 16 14 12 11 13 16 18 20 19 21 21 20 19 21 21 23 25 28 29
38 38 35 31 31 34 33 46 36 31 31 36 31 28 27 26 25 25 25 25 21 18 14 11 9 8 8 8 8 12 16 18 14 14 14 17 17 19 22 22 27 25 23 23 22 23 26 30 32
27 30 38 30 27 27 20 42 28 23 25 29 32 28 27 25 23 24 25 25 21 19 16 14 13 13 12 10 8 13 15 16 15 13 15 16 19 20 19 25 26 26 26 24 24 18 21 29 33
34 37 31 30 22 26 25 32 29 27 26 27 29 26 25 25 23 21 22 23 21 19 17 16 14 13 10 9 11 12 14 14 12 13 15 18 18 17 18 24 19 21 22 25 25 27 25 35 36
38 34 32 30 26 26 30 33 31 25 20 23 22 19 20 22 23 21 20 21 20 18 17 14 13 13 12 11 13 14 13 13 13 16 19 20 23 19 20 18 21 21 29 31 23 30 32 28 30
33 35 34 32 26 25 32 34 32 28 26 25 26 27 25 24 24 24 22 20 20 18 16 14 12 12 11 13 14 16 16 15 16 17 20 21 21 21 23 22 23 24 26 28 29 29 32 32 27
42 36 34 29 22 25 28 32 30 27 28 25 25 26 24 27 28 27 23 21 20 19 19 18 16 15 15 16 16 17 16 18 18 19 22 24 24 24 24 25 26 27 26 26 27 26 31 29 37
39 38 32 30 25 26 29 35 32 27 26 25 23 23 23 23 23 24 25 24 23 21 19 20 19 17 15 15 14 18 18 21 21 24 26 26 26 27 28 30 31 31 31 33 30 31 31 35 29
41 33 30 29 27 32 24 34 26 25 28 24 22 20 21 23 26 22 21 21 23 22 20 20 18 16 15 13 16 20 23 24 24 25 24 24 24 25 27 30 33 34 31 31 29 23 23 25 28
37 27 31 27 27 29 29 28 25 20 21 17 15 13 17 22 24 22 18 17 19 16 17 16 14 14 15 16 18 19 23 23 23 25 23 22 23 22 23 23 23 22 18 19 18 24 26 21 24
25 26 25 24 27 38 31 26 27 21 18 17 14 14 15 17 19 19 18 17 14 11 11 11 11 12 12 12 14 17 20 23 23 24 24 24 24 24 24 23 23 25 25 22 22 21 24 24 22
26 27 29 31 32 34 25 24 21 19 19 17 14 12 11 12 12 12 12 12 12 10 9 9 9 11 11 12 13 14 15 17 19 20 21 22 23 24 25 25 25 26 26 28 27 27 25 27 27
32 31 31 34 33 28 19 25 23 17 14 11 11 11 9 9 9 10 8 6 6 7 6 5 5 6 8 9 10 12 14 16 18 19 20 23 23 25 25 26 26 27 27 28 28 28 28 27 29
36 37 24 21 23 24 24 21 18 15 11 10 10 9 8 7 7 7 6 6 6 5 5 4 4 6 8 10 12 15 17 18 19 20 21 22 24 25 26 27 28 28 29 30 30 30 31 31 31
31 28 32 25 27 26 27 25 21 15 9 8 7 5 3 3 5 6 7 8 8 8 7 6 6 7 10 13 15 16 19 20 21 21 23 23 23 26 27 29 26 27 29 30 31 32 31 33 33
25 31 30 22 20 25 25 26 19 12 8 6 5 1 2 3 3 6 8 9 9 8 8 8 9 10 12 13 15 17 18 20 20 21 23 24 24 25 26 27 27 29 30 32 32 33 32 34 34
17 24 26 27 23 20 20 22 14 11 10 7 4 2 1 3 4 7 9 10 9 7 8 9 11 13 14 15 16 17 18 19 20 21 22 24 26 27 27 28 29 31 32 33 34 35 36 36 37
Wind_Direction
282 281 287 287 268 265 257 264 270 277 288 303 299 289 283 296 300 299 288 310 41 109 115 115 109 104 100 98 97 96 96 97 95 94 93 96 101 104 106 100 97 94 92 89 85 81 77 78 81
287 283 280 275 264 260 253 262 266 276 287 295 302 301 299 296 296 305 325 347 82 111 105 111 109 102 99 97 95 95 94 92 94 95 95 99 104 106 105 100 94 93 93 90 88 86 84 84 85
287 283 269 264 260 255 254 264 270 276 287 294 297 304 299 296 293 310 309 19 87 111 106 112 107 102 100 96 91 87 87 88 90 94 100 105 106 105 103 98 93 92 94 94 94 90 85 85 85
281 278 277 260 257 259 256 272 273 275 290 298 299 290 303 305 299 301 351 73 111 114 114 111 109 104 102 98 91 84 83 84 90 93 97 100 103 103 101 99 95 96 98 96 95 90 86 82 83
280 276 263 262 260 263 263 264 272 272 279 285 297 286 291 302 314 342 31 95 127 130 120 115 115 112 106 101 96 89 83 82 83 80 77 79 85 95 94 90 87 86 86 86 88 82 80 74 72
270 274 264 259 263 267 265 263 269 270 272 284 288 285 289 297 309 319 51 110 140 128 126 114 115 118 112 108 105 98 90 84 84 90 88 82 85 85 85 83 78 82 77 76 71 59 57 55 56
268 267 265 268 267 266 269 268 263 265 265 277 289 279 291 289 293 301 264 120 166 149 138 123 121 121 115 92 104 108 105 96 88 89 93 93 87 75 65 62 61 55 58 52 43 34 18 19 31
274 272 267 268 266 266 273 272 264 267 268 279 288 277 280 287 280 268 249 200 175 176 217 183 157 168 168 252 287 91 112 114 112 105 96 91 90 76 64 46 26 8 13 23 25 17 359 354 350
281 269 265 266 268 264 276 270 269 270 268 270 282 285 290 278 257 249 226 222 202 213 195 185 204 208 185 191 237 260 233 26 89 98 105 107 97 80 79 53 7 350 349 351 354 352 346 337 330
268 267 268 277 274 272 273 268 268 267 266 267 276 289 291 264 247 229 215 208 214 200 191 188 180 196 223 249 243 241 250 265 266 303 332 332 327 322 322 320 324 326 328 333 333 330 329 324 322
270 264 273 277 278 276 271 269 271 266 262 264 270 280 282 266 254 238 235 227 208 214 218 204 179 184 203 229 243 257 261 262 265 271 280 294 305 309 308 308 309 310 313 315 317 317 315 316 317
267 270 274 276 276 279 276 275 268 269 266 267 267 275 275 264 253 244 247 249 253 247 247 243 229 235 253 253 260 270 270 273 272 270 275 287 294 298 302 304 304 303 304 306 308 310 309 309 309
265 269 273 272 273 275 276 268 268 268 272 268 266 269 267 263 255 252 255 259 272 265 266 261 259 254 258 242 266 271 273 275 278 275 280 283 287 293 300 303 302 301 300 300 302 304 305 304 305
273 268 269 273 275 277 275 269 273 272 280 270 266 266 264 260 255 253 251 250 265 270 270 265 255 255 257 258 265 267 275 280 280 283 281 283 287 289 295 298 299 300 297 297 298 300 303 301 301
265 269 272 273 271 272 276 264 268 274 273 269 268 262 266 266 257 249 247 254 264 270 270 263 250 248 254 268 264 269 277 277 282 283 281 282 285 290 291 295 293 294 294 296 299 298 299 299 298
271 269 266 269 270 277 270 268 275 278 274 272 265 264 267 266 264 255 252 256 263 267 271 271 273 266 264 265 264 276 279 283 284 282 282 286 289 288 289 289 293 293 291 293 297 305 308 304 299
261 263 266 270 267 270 266 277 281 274 272 271 267 264 264 265 267 260 253 255 260 268 275 278 280 273 270 275 281 286 285 283 285 285 281 291 294 292 291 292 292 293 296 295 296 291 300 303 298
256 256 265 271 273 263 267 272 277 280 279 272 267 264 261 262 263 260 257 257 259 265 272 280 281 279 282 286 289 291 291 292 294 295 295 297 296 300 301 298 294 289 288 292 296 298 299 300 299
259 261 263 268 269 270 266 269 270 272 275 273 268 266 266 264 265 264 260 258 258 260 265 272 276 280 281 286 286 290 287 293 298 299 301 305 305 302 300 300 300 299 294 291 299 302 299 300 306
253 257 260 267 270 266 271 271 271 271 272 271 268 267 266 267 263 263 258 255 255 257 259 267 275 279 283 286 291 296 294 294 297 298 302 302 304 305 305 303 299 298 296 293 297 304 300 294 304
246 250 256 260 267 272 272 271 270 270 273 273 271 270 269 269 263 262 260 256 258 260 258 264 276 280 285 290 292 300 302 302 301 301 303 304 304 305 304 303 301 298 294 292 292 295 295 304 285
243 246 252 256 262 260 270 267 272 268 270 270 268 266 268 270 266 265 263 259 260 262 270 271 274 277 283 288 289 293 296 299 308 310 314 313 314 312 311 307 304 301 300 297 300 302 300 297 295
246 241 244 255 259 262 261 265 265 276 270 264 269 272 275 275 271 268 264 260 269 272 271 276 282 284 285 289 292 294 295 303 309 314 318 323 321 322 324 322 318 319 323 315 308 302 303 300 299
239 235 243 252 254 254 253 256 257 267 266 270 276 275 280 284 279 277 273 273 277 279 284 286 288 291 296 300 304 302 302 307 310 314 313 322 322 326 330 328 322 316 314 311 307 305 303 300 293
220 217 235 241 244 251 246 248 261 268 269 266 270 277 288 293 291 297 284 275 278 280 282 292 304 303 310 313 317 320 324 329 326 326 326 326 329 333 329 322 321 319 317 312 312 309 307 300 297
219 219 231 237 239 242 244 245 252 267 279 271 270 279 293 304 311 314 321 312 303 295 294 307 328 336 342 348 351 348 351 346 341 342 337 334 333 332 330 323 321 321 317 313 312 312 313 312 308
216 223 225 244 246 238 244 254 259 263 268 267 267 279 289 309 330 341 358 3 355 351 350 8 21 17 8 0 352 345 344 343 343 342 342 340 333 330 327 319 317 314 313 314 316 315 311 310 308
215 214 217 239 234 238 241 241 245 244 244 253 262 278 307 335 8 24 22 25 28 29 25 24 19 9 349 346 346 343 345 345 346 345 342 344 346 335 326 319 325 320 317 317 315 312 311 309 308
209 214 219 235 244 241 236 243 246 235 228 222 241 242 81 68 45 41 37 36 30 29 27 24 11 9 3 1 357 354 352 355 359 358 351 352 352 346 338 330 326 317 316 314 315 313 313 311 310
225 209 216 223 233 247 246 241 245 234 225 212 199 187 106 68 58 52 48 48 32 21 12 10 6 11 10 13 8 4 3 4 359 353 348 348 343 340 338 333 324 321 318 316 315 313 312 311 311